Wind_Speed
59 59 59 59 59 59 59 58 57 55 52 51 51 52 53 52 53 53 52 52 51 49 48 48 46 45 45 45 46 47 49 50 51 52 54 55 55 53
58 58 58 58 58 57 55 54 54 54 52 49 49 49 50 50 49 49 48 47 46 44 43 41 40 39 39 41 42 43 44 45 46 46 48 49 49 48
56 56 57 57 56 54 53 52 52 52 51 49 48 48 48 47 45 45 44 43 40 39 38 37 36 36 36 36 37 37 38 38 39 39 40 41 41 41
55 55 55 55 54 52 52 51 51 51 50 48 46 45 44 43 41 41 40 39 37 36 34 33 32 32 32 31 29 29 30 31 31 32 33 34 34 35
54 54 53 52 52 51 51 50 48 47 46 46 43 42 41 39 38 37 36 35 34 31 30 29 28 27 26 25 23 23 23 23 24 25 25 26 28 29
52 52 51 51 51 50 49 47 46 44 43 42 40 38 37 36 36 34 31 30 29 26 25 25 24 22 21 19 18 17 17 17 18 18 19 21 23 25
51 50 50 50 49 48 46 44 42 40 39 38 36 35 34 34 33 30 27 26 25 24 23 22 20 18 17 16 15 14 13 14 15 16 16 18 20 20
49 49 48 48 46 44 42 40 38 37 36 34 33 32 32 31 29 27 26 23 21 20 19 16 15 14 13 13 11 11 11 12 13 14 14 15 17 18
48 48 47 45 43 40 38 36 35 35 34 33 31 31 29 28 26 23 22 19 17 16 15 13 12 11 11 9 10 10 10 11 12 12 13 14 16 17
46 45 43 40 38 37 35 33 32 32 32 31 30 28 25 23 22 21 19 17 15 15 13 11 10 10 10 9 9 10 11 12 13 13 13 14 16 16
43 41 38 36 34 33 32 30 30 29 28 27 26 24 22 21 21 19 17 15 13 12 10 9 9 8 8 8 9 10 11 12 13 13 14 14 15 15
39 37 34 32 31 30 28 28 27 25 24 23 22 21 20 19 18 16 14 12 11 9 8 7 7 8 7 7 8 9 10 11 12 13 14 15 14 15
36 34 32 30 30 29 27 26 24 22 21 21 20 18 17 16 15 13 11 10 9 8 7 6 7 8 8 8 8 9 10 11 12 13 14 14 14 14
34 32 31 30 29 27 24 22 21 19 19 18 17 16 15 14 13 11 10 9 9 8 7 7 8 8 9 9 9 10 10 12 12 12 12 13 13 14
33 31 30 28 26 24 22 20 18 18 17 16 15 14 13 12 11 10 8 7 7 8 8 8 8 8 9 10 10 11 11 12 12 11 11 12 12 13
32 30 28 26 24 21 20 18 17 17 16 15 14 13 11 10 9 9 8 7 8 8 8 8 8 9 10 10 11 11 10 10 10 10 10 11 12 13
30 28 26 23 20 18 17 16 16 15 14 13 13 11 10 9 9 8 8 8 9 8 7 8 9 9 9 9 9 9 9 9 9 9 10 10 11 10
26 24 21 19 18 16 16 16 15 14 13 12 11 10 10 9 9 8 8 9 9 8 8 8 8 8 8 8 7 7 8 8 8 9 9 9 8 6
22 21 19 18 17 16 15 15 14 13 12 11 10 10 10 9 9 8 9 9 8 7 7 7 7 8 8 7 7 7 7 7 7 7 7 6 4 3
21 19 18 17 17 16 15 14 13 12 11 10 10 10 9 9 8 8 7 7 7 6 6 6 7 8 8 7 7 7 6 6 6 6 4 3 2 2
19 17 16 15 15 14 13 13 12 11 10 10 10 9 9 8 8 7 7 6 6 6 6 6 6 7 6 6 6 6 6 5 4 3 1 1 2 2
15 15 14 14 13 13 12 11 11 10 10 10 9 8 8 7 8 7 7 6 6 6 5 5 5 5 4 4 4 4 4 2 1 1 2 2 2 2
13 12 13 12 12 12 11 11 10 10 10 9 8 8 8 7 7 6 6 5 5 4 4 3 3 3 2 1 1 1 1 2 3 4 3 4 4 4
Wind_Direction
293 294 295 295 296 297 297 297 296 294 292 291 290 291 291 291 291 291 290 290 288 285 282 281 278 276 274 272 270 268 266 265 264 263 263 262 261 261
293 294 295 296 297 297 297 297 296 296 296 294 292 292 293 292 293 293 292 291 289 287 285 283 279 277 277 275 273 272 269 267 266 266 264 262 260 260
294 295 296 296 296 296 297 297 296 296 296 296 294 293 294 294 294 294 293 292 290 288 286 283 280 278 279 279 277 274 271 269 267 267 264 262 259 259
296 296 296 296 296 295 296 296 296 296 296 297 296 295 295 295 295 295 295 293 290 289 285 282 280 280 280 280 277 275 273 270 268 265 263 262 261 260
296 296 297 296 296 296 296 295 296 296 297 298 298 296 295 294 296 297 296 294 291 288 284 281 282 283 282 279 277 277 274 269 266 264 264 263 262 262
297 297 297 296 297 297 296 295 295 296 297 298 298 297 295 294 296 298 297 295 291 288 286 283 283 284 283 279 277 277 271 267 267 266 265 269 268 267
297 297 297 296 297 297 296 294 294 294 296 298 298 296 294 293 295 298 298 297 291 288 286 282 280 279 278 274 273 274 271 271 271 271 272 270 269 268
297 297 296 296 296 297 296 294 293 293 295 296 297 296 296 295 295 296 297 295 290 288 286 279 277 279 276 271 269 272 273 282 283 276 277 276 277 274
297 297 296 295 294 295 294 293 292 293 294 295 296 298 297 294 293 295 297 294 290 286 283 279 278 277 270 265 265 265 271 277 285 285 280 279 283 279
297 296 295 293 293 293 292 291 291 292 292 293 295 296 295 293 293 293 294 291 291 287 279 277 276 273 266 264 272 273 274 278 281 280 280 281 282 283
296 295 293 292 292 293 292 291 291 292 292 292 292 292 290 291 292 291 289 286 284 281 273 270 267 264 262 259 268 274 275 276 279 280 282 285 286 287
294 294 292 292 292 294 292 291 291 291 291 291 290 289 288 289 289 287 285 282 275 270 260 257 261 264 265 267 275 281 283 280 280 282 286 287 286 288
292 292 291 290 291 291 291 291 290 288 288 289 287 288 286 284 283 281 278 272 264 256 250 253 260 265 271 275 277 280 282 285 285 286 286 288 288 288
292 291 290 289 289 288 287 286 286 286 285 287 287 286 281 278 276 271 264 259 254 247 245 255 260 267 279 283 278 279 286 291 291 289 288 289 291 292
292 290 289 287 287 286 283 281 280 280 279 281 282 280 279 276 269 261 252 250 252 247 244 255 265 275 282 285 284 287 289 291 291 289 290 293 295 298
290 289 287 285 283 280 278 275 275 275 275 277 276 271 269 264 255 255 247 245 242 243 245 259 271 280 285 286 288 290 293 291 289 293 295 296 298 298
287 286 284 282 278 275 273 271 270 270 271 272 271 263 257 249 248 251 247 242 237 243 257 270 278 282 287 288 288 292 294 294 296 297 297 299 298 296
283 283 280 275 270 268 268 268 267 265 264 265 264 254 246 243 245 245 243 239 240 249 261 269 273 275 283 286 288 292 294 293 298 302 304 306 304 297
280 278 274 269 265 264 264 263 261 258 256 258 254 244 237 236 237 239 238 238 242 247 254 263 268 276 284 290 293 293 296 297 306 314 318 318 316 319
276 272 266 263 260 258 257 254 252 249 248 248 240 231 230 231 232 234 231 234 239 245 250 259 271 282 286 293 297 297 296 299 306 316 325 336 354 7
271 265 259 255 251 248 245 243 240 238 235 229 225 222 222 222 222 224 227 231 236 242 249 258 271 285 285 292 304 305 299 299 309 325 3 31 30 29
264 259 252 246 241 236 231 228 225 222 217 216 216 216 218 219 220 223 227 231 235 237 244 255 272 280 280 297 313 311 306 309 340 84 64 49 59 50
258 253 245 236 231 225 219 216 213 208 206 207 210 214 212 213 218 223 225 226 223 224 232 248 262 267 278 310 355 14 62 75 101 101 79 73 79 77
Height
5631 5627 5622 5618 5612 5606 5601 5595 5590 5588 5590 5587 5581 5575 5570 5566 5562 5558 5554 5550 5547 5544 5542 5541 5541 5541 5542 5542 5543 5544 5545 5547 5549 5552 5554 5557 5560 5564
5617 5613 5608 5604 5599 5593 5588 5583 5577 5572 5572 5572 5567 5562 5557 5553 5549 5544 5541 5537 5534 5532 5530 5529 5529 5529 5530 5530 5530 5530 5532 5533 5535 5538 5540 5542 5546 5549
5604 5599 5595 5590 5585 5580 5575 5570 5566 5560 5557 5557 5553 5549 5545 5541 5537 5533 5529 5526 5523 5522 5520 5519 5519 5519 5519 5519 5518 5519 5520 5521 5524 5525 5527 5530 5533 5537
5591 5586 5581 5576 5572 5567 5563 5558 5554 5549 5545 5543 5541 5537 5534 5530 5526 5523 5519 5516 5514 5512 5511 5510 5510 5510 5510 5509 5509 5510 5510 5512 5513 5515 5518 5520 5523 5526
5578 5573 5568 5563 5559 5555 5551 5546 5542 5538 5534 5531 5529 5526 5523 5520 5516 5514 5511 5508 5506 5504 5503 5503 5502 5502 5502 5502 5503 5503 5504 5505 5506 5508 5510 5512 5515 5517
5565 5560 5555 5551 5546 5542 5539 5535 5531 5528 5525 5521 5519 5517 5514 5511 5508 5506 5504 5501 5499 5498 5497 5496 5496 5497 5497 5497 5497 5498 5499 5500 5501 5503 5505 5506 5508 5510
5553 5548 5543 5538 5534 5530 5527 5524 5521 5518 5515 5512 5511 5509 5506 5504 5501 5499 5497 5496 5494 5492 5492 5491 5492 5492 5492 5492 5493 5493 5495 5496 5498 5499 5500 5502 5503 5504
5541 5536 5532 5527 5523 5520 5517 5514 5511 5509 5507 5505 5503 5501 5499 5497 5495 5493 5492 5490 5489 5489 5487 5488 5488 5489 5489 5489 5490 5491 5492 5493 5495 5496 5497 5498 5499 5499
5529 5525 5520 5517 5513 5510 5508 5506 5503 5501 5499 5497 5496 5494 5492 5491 5489 5489 5487 5485 5485 5485 5484 5485 5485 5486 5486 5487 5488 5489 5490 5491 5492 5494 5494 5495 5496 5496
5517 5513 5510 5507 5504 5501 5499 5498 5496 5494 5492 5490 5489 5488 5486 5485 5484 5483 5482 5482 5482 5481 5481 5482 5483 5484 5485 5486 5486 5487 5488 5489 5490 5491 5491 5492 5492 5492
5507 5503 5500 5498 5496 5493 5492 5490 5490 5488 5486 5484 5483 5482 5481 5480 5479 5479 5479 5479 5479 5479 5479 5480 5481 5482 5484 5485 5485 5486 5486 5486 5487 5487 5488 5488 5488 5488
5498 5495 5492 5490 5488 5486 5484 5483 5483 5482 5480 5479 5478 5477 5477 5476 5476 5476 5476 5476 5476 5477 5478 5479 5480 5480 5482 5484 5484 5484 5484 5484 5484 5485 5485 5484 5484 5484
5490 5487 5485 5483 5481 5479 5478 5477 5476 5476 5475 5474 5474 5474 5473 5473 5473 5473 5473 5473 5474 5475 5476 5477 5478 5479 5480 5481 5482 5482 5482 5482 5482 5482 5481 5481 5480 5480
5481 5479 5477 5475 5474 5472 5472 5471 5471 5471 5471 5470 5470 5470 5470 5470 5470 5470 5471 5472 5473 5474 5475 5476 5477 5478 5479 5479 5480 5480 5480 5479 5479 5479 5478 5478 5477 5476
5473 5471 5470 5468 5467 5466 5466 5466 5466 5466 5466 5466 5466 5467 5467 5467 5468 5468 5469 5470 5471 5472 5474 5475 5476 5477 5478 5478 5478 5478 5478 5477 5476 5476 5475 5474 5473 5472
5465 5464 5463 5462 5461 5461 5461 5461 5462 5462 5462 5463 5463 5463 5464 5464 5465 5466 5468 5469 5470 5471 5472 5473 5474 5475 5475 5475 5475 5475 5474 5474 5474 5473 5472 5471 5470 5469
5458 5457 5456 5456 5456 5456 5456 5457 5457 5458 5458 5459 5460 5460 5461 5462 5464 5465 5466 5467 5468 5470 5470 5471 5472 5473 5473 5473 5473 5472 5472 5471 5471 5470 5469 5468 5467 5466
5450 5450 5450 5450 5450 5451 5452 5453 5453 5454 5454 5455 5457 5458 5459 5460 5462 5463 5464 5465 5466 5467 5468 5469 5470 5471 5471 5471 5471 5470 5469 5469 5468 5467 5466 5465 5465 5464
5444 5444 5444 5445 5445 5446 5447 5448 5449 5450 5451 5452 5454 5455 5457 5458 5459 5461 5462 5463 5464 5465 5467 5467 5468 5469 5470 5470 5469 5468 5468 5467 5466 5465 5464 5463 5463 5463
5437 5438 5438 5439 5440 5442 5443 5444 5445 5446 5448 5449 5451 5453 5455 5456 5458 5459 5460 5461 5463 5464 5465 5466 5466 5467 5467 5467 5467 5466 5465 5465 5464 5464 5463 5462 5462 5462
5432 5432 5433 5434 5435 5437 5439 5440 5442 5443 5445 5447 5449 5451 5453 5454 5456 5457 5458 5460 5461 5462 5463 5464 5464 5464 5465 5465 5465 5464 5464 5463 5462 5462 5462 5462 5462 5462
5426 5427 5428 5429 5431 5433 5435 5437 5439 5441 5443 5445 5447 5449 5451 5452 5454 5455 5457 5458 5460 5460 5461 5462 5462 5462 5463 5463 5463 5462 5462 5462 5462 5461 5462 5462 5462 5462
5422 5423 5424 5426 5428 5430 5432 5435 5437 5439 5441 5443 5445 5447 5449 5451 5452 5454 5456 5457 5458 5459 5460 5461 5461 5461 5461 5461 5461 5461 5461 5461 5461 5462 5462 5462 5462 5462